N1PLV Weather Reports


time (UTC)temp
C
wind
direction
speed
KPH
gust
KPH
rain 1hr
cm
rain 24hr
cm
rain mn
cm
humidity
%
barometer
mb
20230128005941 6 178 1.6 3.2 0.00 0.00 0.00 68 1025.2
20230128004441 6 153 3.2 8.0 0.00 0.00 0.00 67 1025.2
20230128002941 7 158 4.8 11.3 0.00 0.00 0.00 66 1024.9
20230128001441 7 154 4.8 11.3 0.00 0.00 0.00 66 1024.8
20230127232941 7 155 3.2 9.7 0.00 0.00 0.00 65 1024.3
20230127231441 7 157 4.8 11.3 0.00 0.00 0.00 63 1024.4
20230127225941 7 155 6.4 12.9 0.00 0.00 0.00 62 1024.2
20230127224441 7 136 4.8 12.9 0.00 0.00 0.00 61 1023.9
20230127222941 7 219 6.4 17.7 0.00 0.00 0.00 61 1023.9
20230127221441 7 234 3.2 8.0 0.00 0.00 0.00 60 1023.8
20230127215941 8 290 4.8 12.9 0.00 0.00 0.00 57 1023.5
20230127214441 8 308 6.4 12.9 0.00 0.00 0.00 56 1023.4
20230127211441 10 288 8.0 17.7 0.00 0.00 0.00 52 1023.2
20230127204441 10 316 9.7 20.9 0.00 0.00 0.00 51 1023.1
20230127202958 10 291 11.3 20.9 0.00 0.00 0.00 50 1023.0
20230127201441 10 318 11.3 22.5 0.00 0.00 0.00 50 1023.0
20230127195942 10 355 9.7 24.1 0.00 0.00 0.00 50 1023.0
20230127194441 10 284 11.3 24.1 0.00 0.00 0.00 50 1022.8
20230127192941 10 290 9.7 20.9 0.00 0.00 0.00 50 1022.9
20230127191441 9 294 11.3 25.7 0.00 0.00 0.00 52 1022.8
20230127185941 8 270 12.9 27.4 0.00 0.00 0.00 52 1022.8
20230127184441 9 340 11.3 24.1 0.00 0.00 0.00 51 1022.7
20230127182942 9 290 11.3 20.9 0.00 0.00 0.00 51 1022.8
20230127181441 8 318 12.9 25.7 0.00 0.00 0.00 52 1022.9
20230127175958 9 316 8.0 20.9 0.00 0.00 0.00 49 1023.0
20230127174441 9 290 9.7 19.3 0.00 0.00 0.00 50 1023.1
20230127172957 8 333 8.0 16.1 0.00 0.00 0.00 52 1023.1
20230127165942 8 271 8.0 14.5 0.00 0.00 0.00 52 1023.5
20230127164441 8 268 9.7 16.1 0.00 0.00 0.00 53 1023.9
20230127162941 8 299 8.0 14.5 0.00 0.00 0.00 53 1024.1
20230127161441 8 259 6.4 14.5 0.00 0.00 0.00 52 1024.3
20230127154441 8 294 8.0 19.3 0.00 0.00 0.00 57 1024.6
20230127151441 7 266 11.3 20.9 0.00 0.00 0.00 56 1024.7
20230127145941 7 333 8.0 16.1 0.00 0.00 0.00 56 1024.7
20230127142941 7 350 4.8 9.7 0.00 0.00 0.00 56 1024.3
20230127141441 7 298 6.4 14.5 0.00 0.00 0.00 60 1024.4
20230127135942 6 298 4.8 12.9 0.00 0.00 0.00 61 1024.1
20230127134441 6 332 4.8 12.9 0.00 0.00 0.00 64 1024.0
20230127132944 5 311 4.8 14.5 0.00 0.00 0.00 66 1023.7
20230127131443 5 309 4.8 8.0 0.00 0.00 0.00 67 1023.5
20230127124443 4 307 4.8 12.9 0.00 0.00 0.00 69 1022.9
20230127122943 3 312 6.4 14.5 0.00 0.00 0.00 69 1022.7
20230127121443 3 329 4.8 9.7 0.00 0.00 0.00 70 1022.6
20230127115943 3 321 4.8 9.7 0.00 0.00 0.00 71 1022.5
20230127114443 3 299 3.2 8.0 0.00 0.00 0.00 70 1022.3
20230127112943 4 324 3.2 8.0 0.00 0.00 0.00 70 1022.0
20230127111442 4 331 4.8 9.7 0.00 0.00 0.00 70 1021.8
20230127105943 5 321 4.8 14.5 0.00 0.00 0.00 69 1021.6
20230127102943 5 327 6.4 17.7 0.00 0.00 0.00 70 1021.3
20230127101443 5 290 4.8 12.9 0.00 0.00 0.00 74 1021.2
20230127094443 6 258 9.7 17.7 0.00 0.00 0.00 80 1020.6
20230127092943 6 360 9.7 17.7 0.00 0.00 0.00 80 1020.7
20230127091443 6 244 6.4 14.5 0.00 0.00 0.00 79 1020.5
20230127085943 6 212 4.8 11.3 0.00 0.00 0.00 79 1020.3
20230127082943 5 240 3.2 8.0 0.00 0.03 0.00 78 1020.0
20230127081443 5 251 1.6 3.2 0.00 0.03 0.00 75 1020.1
20230127075943 5 268 0.0 0.0 0.00 0.03 0.00 72 1019.9
20230127074443 5 275 0.0 0.0 0.00 0.03 0.00 70 1019.7
20230127072943 5 302 0.0 3.2 0.00 0.03 0.00 69 1019.6
20230127065944 6 302 3.2 8.0 0.00 0.03 0.00 68 1019.6
20230127064443 6 360 3.2 8.0 0.00 0.23 0.00 68 1019.5
20230127062944 6 360 3.2 8.0 0.00 0.23 0.00 67 1019.5
20230127061443 6 360 1.6 6.4 0.00 0.23 0.00 69 1019.4
20230127055943 6 308 3.2 8.0 0.00 0.23 0.00 69 1019.0
20230127054443 6 325 3.2 6.4 0.00 0.61 0.00 70 1019.0
20230127052943 7 321 3.2 6.4 0.00 0.61 0.00 71 1019.0
20230127051443 7 300 4.8 14.5 0.00 0.61 0.00 70 1018.9
20230127045943 7 315 6.4 12.9 0.00 0.84 0.61 72 1018.8
20230127044443 7 267 9.7 19.3 0.00 0.84 0.61 77 1018.8
20230127042944 7 283 8.0 16.1 0.00 0.84 0.61 80 1018.8
20230127041443 7 255 3.2 6.4 0.00 0.84 0.61 80 1018.8
20230127035943 7 229 3.2 6.4 0.00 0.84 0.61 79 1018.6
20230127034443 7 209 1.6 4.8 0.00 0.84 0.61 79 1018.5
20230127032943 7 223 3.2 6.4 0.00 0.84 0.61 79 1018.4
20230127031443 7 226 1.6 4.8 0.00 0.84 0.61 78 1018.1
20230127024442 6 265 3.2 4.8 0.00 0.84 0.61 78 1018.1
20230127022943 6 321 0.0 1.6 0.00 0.84 0.61 76 1018.0
20230127021443 6 322 0.0 1.6 0.00 0.84 0.61 75 1017.9
20230127015943 7 322 0.0 1.6 0.00 0.84 0.61 74 1018.0
20230127014443 7 321 1.6 4.8 0.00 0.84 0.61 74 1017.9
20230127012942 7 317 1.6 6.4 0.00 0.84 0.61 73 1017.7